Time,TemperatureF,DewpointF,PressureIn,WindDirection,WindDirectionDegrees,WindSpeedMPH,WindSpeedGustMPH,Humidity,HourlyPrecipIn,Conditions,Clouds,dailyrainin,SoftwareType,DateUTC
2014-01-23 00:00:00,3.7,-8.2,29.98,NNW,344,3.0,4.0,57,0.00,,,0.01,Wunderground v.1.15,2014-01-23 05:00:00,
2014-01-23 00:10:00,3.5,-8.3,29.98,NNW,330,4.0,6.0,57,0.00,,,0.00,Wunderground v.1.15,2014-01-23 05:10:00,
2014-01-23 00:15:00,3.5,-8.3,29.99,NW,325,6.0,6.0,57,0.00,,,0.00,Wunderground v.1.15,2014-01-23 05:15:00,
2014-01-23 00:25:00,3.7,-8.5,29.98,NNW,340,6.0,6.0,56,0.00,,,0.00,Wunderground v.1.15,2014-01-23 05:25:00,
2014-01-23 00:30:00,3.7,-8.5,29.98,NNW,347,6.0,9.0,56,0.00,,,0.00,Wunderground v.1.15,2014-01-23 05:30:00,
2014-01-23 05:14:00,3.0,-8.8,30.05,NNW,346,1.0,2.0,57,0.00,,,0.00,Wunderground v.1.15,2014-01-23 10:14:00,
2014-01-23 05:20:00,3.0,-9.2,30.05,NNW,330,2.0,4.0,56,0.00,,,0.00,Wunderground v.1.15,2014-01-23 10:20:00,
2014-01-23 05:30:00,3.0,-9.2,30.06,NW,316,4.0,4.0,56,0.00,,,0.00,Wunderground v.1.15,2014-01-23 10:30:00,
2014-01-23 05:35:00,2.8,-9.4,30.06,North,349,3.0,3.0,56,0.00,,,0.00,Wunderground v.1.15,2014-01-23 10:35:00,
2014-01-23 05:40:00,2.8,-9.4,30.06,NW,306,3.0,3.0,56,0.00,,,0.00,Wunderground v.1.15,2014-01-23 10:40:00,
2014-01-23 05:45:00,2.8,-9.4,30.06,NW,319,3.0,3.0,56,0.00,,,0.00,Wunderground v.1.15,2014-01-23 10:45:00,
2014-01-23 05:50:00,2.6,-9.6,30.06,NNW,328,3.0,4.0,56,0.00,,,0.00,Wunderground v.1.15,2014-01-23 10:50:00,
2014-01-23 05:55:00,2.6,-9.6,30.07,NNW,336,3.0,3.0,56,0.00,,,0.00,Wunderground v.1.15,2014-01-23 10:55:00,
2014-01-23 06:10:00,2.2,-9.9,30.07,NW,326,1.0,3.0,56,0.00,,,0.00,Wunderground v.1.15,2014-01-23 11:10:00,
2014-01-23 06:20:00,2.2,-9.9,30.07,NW,326,1.0,1.0,56,0.00,,,0.00,Wunderground v.1.15,2014-01-23 11:20:00,
2014-01-23 06:30:00,1.8,-10.0,30.07,NW,325,0.0,0.0,57,0.00,,,0.00,Wunderground v.1.15,2014-01-23 11:30:00,
2014-01-23 06:35:00,1.7,-9.7,30.08,NW,326,0.0,0.0,58,0.00,,,0.00,Wunderground v.1.15,2014-01-23 11:35:00,
2014-01-23 06:45:00,1.7,-9.7,30.08,NW,326,0.0,0.0,58,0.00,,,0.00,Wunderground v.1.15,2014-01-23 11:45:00,
2014-01-23 06:55:00,1.3,-9.4,30.09,NW,326,0.0,0.0,60,0.00,,,0.00,Wunderground v.1.15,2014-01-23 11:55:00,
2014-01-23 07:10:00,1.7,-9.3,30.09,NNW,343,1.0,1.0,59,0.00,,,0.00,Wunderground v.1.15,2014-01-23 12:10:00,
2014-01-23 07:15:00,1.8,-9.2,30.09,NNW,343,0.0,1.0,59,0.00,,,0.00,Wunderground v.1.15,2014-01-23 12:15:00,
2014-01-23 07:25:00,2.2,-9.2,30.09,NNW,343,0.0,1.0,58,0.00,,,0.00,Wunderground v.1.15,2014-01-23 12:25:00,
2014-01-23 07:30:00,2.4,-8.3,30.09,NNW,343,0.0,0.0,60,0.00,,,0.00,Wunderground v.1.15,2014-01-23 12:30:00,
2014-01-23 07:35:00,2.4,-8.3,30.09,NNW,343,0.0,0.0,60,0.00,,,0.00,Wunderground v.1.15,2014-01-23 12:35:00,
2014-01-23 07:45:00,2.2,-7.9,30.09,NNW,343,0.0,0.0,62,0.00,,,0.00,Wunderground v.1.15,2014-01-23 12:45:00,
2014-01-23 07:50:00,2.2,-7.9,30.09,NNW,343,0.0,0.0,62,0.00,,,0.00,Wunderground v.1.15,2014-01-23 12:50:00,
2014-01-23 08:00:00,2.6,-7.5,30.10,NNW,343,0.0,0.0,62,0.00,,,0.00,Wunderground v.1.15,2014-01-23 13:00:00,
2014-01-23 08:10:00,3.2,-6.9,30.10,NNW,343,0.0,0.0,62,0.00,,,0.00,Wunderground v.1.15,2014-01-23 13:10:00,
2014-01-23 08:15:00,3.4,-7.4,30.10,NNW,343,0.0,0.0,60,0.00,,,0.00,Wunderground v.1.15,2014-01-23 13:15:00,
2014-01-23 08:25:00,3.9,-6.9,30.10,NNW,343,0.0,0.0,60,0.00,,,0.00,Wunderground v.1.15,2014-01-23 13:25:00,
2014-01-23 08:30:00,4.1,-7.1,30.10,NNW,343,0.0,0.0,59,0.00,,,0.00,Wunderground v.1.15,2014-01-23 13:30:00,
2014-01-23 08:35:00,4.3,-6.9,30.10,NNW,343,0.0,1.0,59,0.00,,,0.00,Wunderground v.1.15,2014-01-23 13:35:00,
2014-01-23 08:45:00,4.8,-6.4,30.10,NNW,343,0.0,0.0,59,0.00,,,0.00,Wunderground v.1.15,2014-01-23 13:45:00,
2014-01-23 08:50:00,5.0,-6.2,30.10,NNW,343,0.0,0.0,59,0.00,,,0.00,Wunderground v.1.15,2014-01-23 13:50:00,
2014-01-23 08:55:00,5.4,-6.2,30.10,NNW,343,0.0,1.0,58,0.00,,,0.00,Wunderground v.1.15,2014-01-23 13:55:00,
2014-01-23 09:00:00,5.8,-6.5,30.10,WNW,287,1.0,1.0,56,0.00,,,0.00,Wunderground v.1.15,2014-01-23 14:00:00,
2014-01-23 09:10:00,6.1,-6.6,30.11,SW,233,1.0,2.0,55,0.00,,,0.00,Wunderground v.1.15,2014-01-23 14:10:00,
2014-01-23 09:20:00,7.0,-6.2,30.11,NNW,333,1.0,1.0,54,0.00,,,0.00,Wunderground v.1.15,2014-01-23 14:20:00,
2014-01-23 09:25:00,7.7,-5.9,30.11,NW,314,1.0,3.0,53,0.00,,,0.00,Wunderground v.1.15,2014-01-23 14:25:00,
2014-01-23 09:35:00,8.8,-6.5,30.11,West,271,3.0,3.0,49,0.00,,,0.00,Wunderground v.1.15,2014-01-23 14:35:00,
2014-01-23 09:45:00,9.3,-6.5,30.11,NNW,336,2.0,3.0,48,0.00,,,0.00,Wunderground v.1.15,2014-01-23 14:45:00,
2014-01-23 09:50:00,9.7,-6.1,30.11,NNW,343,2.0,2.0,48,0.00,,,0.00,Wunderground v.1.15,2014-01-23 14:50:00,
2014-01-23 09:55:00,10.0,-5.8,30.11,NNW,342,1.0,2.0,48,0.00,,,0.00,Wunderground v.1.15,2014-01-23 14:55:00,
2014-01-23 10:10:00,11.9,-4.9,30.11,NNW,331,2.0,3.0,46,0.00,,,0.00,Wunderground v.1.15,2014-01-23 15:10:00,
2014-01-23 10:20:00,12.9,-5.0,30.11,NW,316,4.0,4.0,44,0.00,,,0.00,Wunderground v.1.15,2014-01-23 15:20:00,
2014-01-23 10:30:00,13.6,-5.3,30.11,NW,323,4.0,4.0,42,0.00,,,0.00,Wunderground v.1.15,2014-01-23 15:30:00,
2014-01-23 10:40:00,13.5,-4.9,30.11,NW,309,3.0,3.0,43,0.00,,,0.00,Wunderground v.1.15,2014-01-23 15:40:00,
2014-01-23 10:50:00,13.8,-5.1,30.11,West,261,5.0,5.0,42,0.00,,,0.00,Wunderground v.1.15,2014-01-23 15:50:00,
2014-01-23 10:55:00,13.5,-4.9,30.11,West,273,3.0,5.0,43,0.00,,,0.00,Wunderground v.1.15,2014-01-23 15:55:00,
2014-01-23 11:00:00,13.3,-5.1,30.11,SW,229,2.0,3.0,43,0.00,,,0.00,Wunderground v.1.15,2014-01-23 16:00:00,
2014-01-23 11:15:00,13.1,-4.3,30.11,WNW,301,5.0,5.0,45,0.00,,,0.00,Wunderground v.1.15,2014-01-23 16:15:00,
2014-01-23 11:25:00,13.6,-2.9,30.10,NNW,334,5.0,5.0,47,0.00,,,0.00,Wunderground v.1.15,2014-01-23 16:25:00,
2014-01-23 11:30:00,13.8,-3.7,30.10,NNE,27,4.0,8.0,45,0.00,,,0.00,Wunderground v.1.15,2014-01-23 16:30:00,
2014-01-23 11:40:00,14.1,-3.4,30.09,NNW,330,4.0,9.0,45,0.00,,,0.00,Wunderground v.1.15,2014-01-23 16:40:00,
2014-01-23 11:45:00,14.3,-4.2,30.09,NW,316,4.0,6.0,43,0.00,,,0.00,Wunderground v.1.15,2014-01-23 16:45:00,
2014-01-23 11:50:00,14.3,-4.2,30.09,North,355,4.0,6.0,43,0.00,,,0.00,Wunderground v.1.15,2014-01-23 16:50:00,
2014-01-23 11:55:00,14.1,-4.3,30.09,NNW,347,4.0,4.0,43,0.00,,,0.00,Wunderground v.1.15,2014-01-23 16:55:00,
2014-01-23 12:00:00,14.1,-4.3,30.09,West,268,5.0,5.0,43,0.00,,,0.00,Wunderground v.1.15,2014-01-23 17:00:00,
2014-01-23 12:20:00,14.9,-3.6,30.09,NNW,339,6.0,6.0,43,0.00,,,0.00,Wunderground v.1.15,2014-01-23 17:20:00,
2014-01-23 12:30:00,15.1,-3.9,30.09,NW,319,6.0,6.0,42,0.00,,,0.00,Wunderground v.1.15,2014-01-23 17:30:00,
2014-01-23 12:35:00,15.1,-3.9,30.08,NW,325,5.0,8.0,42,0.00,,,0.00,Wunderground v.1.15,2014-01-23 17:35:00,
2014-01-23 12:40:00,15.2,-3.8,30.09,WNW,283,6.0,6.0,42,0.00,,,0.00,Wunderground v.1.15,2014-01-23 17:40:00,
2014-01-23 12:45:00,15.4,-3.1,30.09,WNW,301,7.0,7.0,43,0.00,,,0.00,Wunderground v.1.15,2014-01-23 17:45:00,
2014-01-23 12:55:00,15.4,-3.6,30.09,West,270,6.0,7.0,42,0.00,,,0.00,Wunderground v.1.15,2014-01-23 17:55:00,
2014-01-23 13:00:00,15.6,-3.5,30.08,West,266,4.0,4.0,42,0.00,,,0.00,Wunderground v.1.15,2014-01-23 18:00:00,
2014-01-23 13:20:00,16.4,-3.2,30.08,WNW,292,6.0,6.0,41,0.00,,,0.00,Wunderground v.1.15,2014-01-23 18:20:00,
2014-01-23 13:30:00,16.7,-3.0,30.08,West,269,7.0,9.0,41,0.00,,,0.00,Wunderground v.1.15,2014-01-23 18:30:00,
2014-01-23 13:35:00,17.0,-3.2,30.08,WNW,290,8.0,11.0,40,0.00,,,0.00,Wunderground v.1.15,2014-01-23 18:35:00,
2014-01-23 13:40:00,17.2,-3.6,30.08,NW,313,8.0,8.0,39,0.00,,,0.00,Wunderground v.1.15,2014-01-23 18:40:00,
2014-01-23 13:50:00,17.3,-3.5,30.08,NW,309,6.0,6.0,39,0.00,,,0.00,Wunderground v.1.15,2014-01-23 18:50:00,
2014-01-23 13:55:00,17.7,-2.6,30.09,WNW,289,7.0,13.0,40,0.00,,,0.00,Wunderground v.1.15,2014-01-23 18:55:00,
2014-01-23 14:55:00,16.5,-1.7,30.11,WSW,257,6.0,7.0,44,0.00,,,0.00,Wunderground v.1.15,2014-01-23 19:55:00,
2014-01-23 15:10:00,18.1,-0.7,30.11,West,278,5.0,8.0,43,0.00,,,0.00,Wunderground v.1.15,2014-01-23 20:10:00,
2014-01-23 15:15:00,18.4,-0.9,30.11,West,275,6.0,13.0,42,0.00,,,0.00,Wunderground v.1.15,2014-01-23 20:15:00,
2014-01-23 15:25:00,18.4,-0.9,30.12,NNW,338,5.0,7.0,42,0.00,,,0.00,Wunderground v.1.15,2014-01-23 20:25:00,
2014-01-23 15:35:00,18.4,-1.4,30.12,WNW,287,4.0,6.0,41,0.00,,,0.00,Wunderground v.1.15,2014-01-23 20:35:00,
2014-01-23 15:40:00,18.1,-1.7,30.12,WNW,294,3.0,3.0,41,0.00,,,0.00,Wunderground v.1.15,2014-01-23 20:40:00,
2014-01-23 15:45:00,18.1,-1.7,30.12,WNW,292,2.0,3.0,41,0.00,,,0.00,Wunderground v.1.15,2014-01-23 20:45:00,
2014-01-23 15:55:00,17.7,-2.1,30.12,WSW,248,6.0,12.0,41,0.00,,,0.00,Wunderground v.1.15,2014-01-23 20:55:00,
2014-01-23 16:10:00,17.2,-1.5,30.13,West,268,6.0,7.0,43,0.00,,,0.00,Wunderground v.1.15,2014-01-23 21:10:00,
2014-01-23 16:15:00,16.9,-0.8,30.13,WNW,290,7.0,14.0,45,0.00,,,0.00,Wunderground v.1.15,2014-01-23 21:15:00,
2014-01-23 16:25:00,16.2,-1.0,30.14,WNW,298,4.0,6.0,46,0.00,,,0.00,Wunderground v.1.15,2014-01-23 21:25:00,
2014-01-23 16:35:00,15.6,-0.6,30.14,NW,309,5.0,8.0,48,0.00,,,0.00,Wunderground v.1.15,2014-01-23 21:35:00,
2014-01-23 16:45:00,15.2,-0.6,30.15,WNW,301,4.0,6.0,49,0.00,,,0.00,Wunderground v.1.15,2014-01-23 21:45:00,
2014-01-23 16:55:00,14.9,-0.4,30.15,WNW,290,4.0,4.0,50,0.00,,,0.00,Wunderground v.1.15,2014-01-23 21:55:00,
2014-01-23 17:00:00,14.8,-0.1,30.15,West,272,3.0,6.0,51,0.00,,,0.00,Wunderground v.1.15,2014-01-23 22:00:00,
2014-01-23 17:10:00,14.4,0.0,30.15,WNW,302,5.0,5.0,52,0.00,,,0.00,Wunderground v.1.15,2014-01-23 22:10:00,
2014-01-23 17:20:00,14.4,0.0,30.16,NNW,331,4.0,7.0,52,0.00,,,0.00,Wunderground v.1.15,2014-01-23 22:20:00,
2014-01-23 17:25:00,14.3,0.3,30.16,NNW,345,3.0,7.0,53,0.00,,,0.00,Wunderground v.1.15,2014-01-23 22:25:00,
2014-01-23 17:35:00,14.1,0.1,30.17,NW,326,3.0,3.0,53,0.00,,,0.00,Wunderground v.1.15,2014-01-23 22:35:00,
2014-01-23 17:45:00,14.0,0.4,30.17,WNW,285,4.0,4.0,54,0.00,,,0.00,Wunderground v.1.15,2014-01-23 22:45:00,
2014-01-23 17:55:00,14.0,1.2,30.18,NW,304,3.0,4.0,56,0.00,,,0.00,Wunderground v.1.15,2014-01-23 22:55:00,
2014-01-23 18:10:00,13.6,2.3,30.19,NNW,329,4.0,4.0,60,0.00,,,0.00,Wunderground v.1.15,2014-01-23 23:10:00,
2014-01-23 18:20:00,13.3,2.7,30.19,WNW,296,3.0,3.0,62,0.00,,,0.00,Wunderground v.1.15,2014-01-23 23:20:00,
2014-01-23 18:25:00,13.3,3.0,30.19,WNW,289,2.0,6.0,63,0.00,,,0.00,Wunderground v.1.15,2014-01-23 23:25:00,
2014-01-23 18:30:00,13.1,2.9,30.19,WNW,297,3.0,3.0,63,0.00,,,0.00,Wunderground v.1.15,2014-01-23 23:30:00,
2014-01-23 18:40:00,12.6,2.4,30.20,WNW,287,1.0,2.0,63,0.00,,,0.00,Wunderground v.1.15,2014-01-23 23:40:00,
2014-01-23 18:45:00,12.3,2.1,30.20,WNW,292,1.0,2.0,63,0.00,,,0.00,Wunderground v.1.15,2014-01-23 23:45:00,
2014-01-23 18:50:00,11.9,2.0,30.20,WNW,292,1.0,1.0,64,0.00,,,0.00,Wunderground v.1.15,2014-01-23 23:50:00,
2014-01-23 19:00:00,11.2,1.7,30.20,WNW,292,0.0,0.0,65,0.00,,,0.00,Wunderground v.1.15,2014-01-24 00:00:00,
2014-01-23 19:10:00,10.7,1.2,30.21,WNW,292,0.0,0.0,65,0.00,,,0.00,Wunderground v.1.15,2014-01-24 00:10:00,
2014-01-23 19:15:00,10.4,1.3,30.21,WNW,292,0.0,0.0,66,0.00,,,0.00,Wunderground v.1.15,2014-01-24 00:15:00,
2014-01-23 19:20:00,9.9,0.8,30.21,WNW,292,0.0,0.0,66,0.00,,,0.00,Wunderground v.1.15,2014-01-24 00:20:00,
2014-01-23 19:30:00,9.3,0.9,30.21,WNW,292,0.0,0.0,68,0.00,,,0.00,Wunderground v.1.15,2014-01-24 00:30:00,
2014-01-23 19:40:00,9.3,0.9,30.22,WNW,292,0.0,0.0,68,0.00,,,0.00,Wunderground v.1.15,2014-01-24 00:40:00,
2014-01-23 19:50:00,9.2,0.5,30.22,WNW,292,0.0,0.0,67,0.00,,,0.00,Wunderground v.1.15,2014-01-24 00:50:00,
2014-01-23 19:55:00,8.8,0.1,30.22,WNW,292,0.0,0.0,67,0.00,,,0.00,Wunderground v.1.15,2014-01-24 00:55:00,
2014-01-23 20:00:00,8.6,-0.1,30.22,WNW,292,0.0,0.0,67,0.00,,,0.00,Wunderground v.1.15,2014-01-24 01:00:00,
2014-01-23 20:10:00,8.4,-0.6,30.22,WNW,292,0.0,0.0,66,0.00,,,0.00,Wunderground v.1.15,2014-01-24 01:10:00,
2014-01-23 20:15:00,8.6,-0.8,30.22,WNW,292,0.0,0.0,65,0.00,,,0.00,Wunderground v.1.15,2014-01-24 01:15:00,
2014-01-23 20:25:00,8.4,-1.0,30.22,WNW,292,0.0,0.0,65,0.00,,,0.00,Wunderground v.1.15,2014-01-24 01:25:00,
2014-01-23 20:35:00,7.7,-1.6,30.23,WNW,292,0.0,0.0,65,0.00,,,0.00,Wunderground v.1.15,2014-01-24 01:35:00,
2014-01-23 20:40:00,7.6,-1.7,30.23,WNW,292,0.0,0.0,65,0.00,,,0.00,Wunderground v.1.15,2014-01-24 01:40:00,
2014-01-23 20:45:00,7.6,-1.7,30.23,WNW,292,0.0,0.0,65,0.00,,,0.00,Wunderground v.1.15,2014-01-24 01:45:00,
2014-01-23 20:55:00,7.9,-1.4,30.23,WNW,292,0.0,0.0,65,0.00,,,0.00,Wunderground v.1.15,2014-01-24 01:55:00,
2014-01-23 21:10:00,7.4,-1.9,30.23,WNW,292,0.0,0.0,65,0.00,,,0.00,Wunderground v.1.15,2014-01-24 02:10:00,
2014-01-23 21:15:00,7.4,-1.9,30.23,WNW,292,0.0,0.0,65,0.00,,,0.00,Wunderground v.1.15,2014-01-24 02:15:00,
2014-01-23 21:25:00,7.7,-2.0,30.23,WNW,292,0.0,0.0,64,0.00,,,0.00,Wunderground v.1.15,2014-01-24 02:25:00,
2014-01-23 21:30:00,7.7,-2.0,30.23,WNW,292,0.0,0.0,64,0.00,,,0.00,Wunderground v.1.15,2014-01-24 02:30:00,
2014-01-23 21:40:00,7.6,-2.1,30.23,WNW,292,0.0,0.0,64,0.00,,,0.00,Wunderground v.1.15,2014-01-24 02:40:00,
2014-01-23 21:50:00,7.4,-2.2,30.24,WNW,292,0.0,0.0,64,0.00,,,0.00,Wunderground v.1.15,2014-01-24 02:50:00,
2014-01-23 22:00:00,6.7,-2.9,30.24,WNW,292,0.0,0.0,64,0.00,,,0.00,Wunderground v.1.15,2014-01-24 03:00:00,
2014-01-23 22:10:00,6.3,-3.3,30.24,WNW,292,0.0,0.0,64,0.00,,,0.00,Wunderground v.1.15,2014-01-24 03:10:00,
2014-01-23 22:15:00,6.1,-3.5,30.24,WNW,292,0.0,0.0,64,0.00,,,0.00,Wunderground v.1.15,2014-01-24 03:15:00,
2014-01-23 22:20:00,6.0,-3.3,30.24,WNW,292,1.0,1.0,65,0.00,,,0.00,Wunderground v.1.15,2014-01-24 03:20:00,
2014-01-23 22:25:00,6.0,-3.3,30.24,WNW,292,0.0,1.0,65,0.00,,,0.00,Wunderground v.1.15,2014-01-24 03:25:00,
2014-01-23 22:35:00,6.1,-3.2,30.24,WSW,254,0.0,4.0,65,0.00,,,0.00,Wunderground v.1.15,2014-01-24 03:35:00,
2014-01-23 22:45:00,6.3,-3.0,30.24,WNW,294,0.0,1.0,65,0.00,,,0.00,Wunderground v.1.15,2014-01-24 03:45:00,
2014-01-23 22:50:00,6.1,-3.5,30.24,WNW,294,1.0,1.0,64,0.00,,,0.00,Wunderground v.1.15,2014-01-24 03:50:00,
2014-01-23 23:00:00,6.1,-3.2,30.24,WNW,294,0.0,0.0,65,0.00,,,0.00,Wunderground v.1.15,2014-01-24 04:00:00,
2014-01-23 23:10:00,6.1,-3.2,30.24,WNW,294,0.0,0.0,65,0.00,,,0.00,Wunderground v.1.15,2014-01-24 04:10:00,
2014-01-23 23:15:00,5.8,-3.8,30.24,WNW,294,0.0,0.0,64,0.00,,,0.00,Wunderground v.1.15,2014-01-24 04:15:00,
2014-01-23 23:25:00,5.0,-3.6,30.24,WNW,294,0.0,0.0,67,0.00,,,0.00,Wunderground v.1.15,2014-01-24 04:25:00,
2014-01-23 23:35:00,4.5,-3.7,30.25,WNW,294,0.0,0.0,68,0.00,,,0.00,Wunderground v.1.15,2014-01-24 04:35:00,
2014-01-23 23:45:00,4.1,-3.8,30.25,WNW,294,0.0,0.0,69,0.00,,,0.00,Wunderground v.1.15,2014-01-24 04:45:00,
2014-01-23 23:50:00,3.9,-4.0,30.25,WNW,294,0.0,0.0,69,0.00,,,0.00,Wunderground v.1.15,2014-01-24 04:50:00,
2014-01-23 23:55:00,3.9,-4.0,30.25,WNW,294,0.0,0.0,69,0.00,,,0.00,Wunderground v.1.15,2014-01-24 04:55:00,